Weather History for Cambridge, MN

Change the Weather History Date:

Saturday, January 4, 2014

  Actual Average Record
Temperature  
Mean Temperature 16 °F -  
Max Temperature 33 °F 16 °F 39 °F (2001)
Min Temperature -4 °F -3 °F -26 °F (1976)
Degree Days  
Heating Degree Days 50    
Moisture  
Dew Point 5 °F    
Average Humidity 65    
Maximum Humidity 80    
Minimum Humidity 53    
Precipitation  
Precipitation 0.00 in - - ()
Sea Level Pressure  
Sea Level Pressure 29.85 in    
Wind  
Wind Speed 10 mph (WNW)    
Max Wind Speed 20 mph    
Max Gust Speed 29 mph    
Visibility 9 miles    
Events Snow    
Averages and records for this station are not official NWS values.
T = Trace of Precipitation, MM = Missing Value Source: NWS Daily Summary

Daily Weather History Graph

Daily Weather History Graph

Search for Another Location

Airport:

Trip Planner

Search our weather history database for the weather conditions in past years. The results will help you decide how hot, cold, wet, or windy it might be!

Date:

Astronomy

Jan. 04, 2014 Rise Set
Actual Time 7:53 AM CST 4:43 PM CST
Civil Twilight 7:19 AM CST 5:17 PM CST
Nautical Twilight 6:42 AM CST 5:54 PM CST
Astronomical Twilight 6:06 AM CST 6:30 PM CST
Moon 9:46 AM CST (1/4) 9:17 PM CST (1/4)
Length of Visible Light 9h 57m
Length of Day
8h 49m
Waxing Crescent, 15% of the Moon is Illuminated
Jan 4
Waxing Crescent
Jan 7
First Quarter
Jan 15
Full
Jan 23
Last Quarter
Jan 30
New

Hourly Weather History & Observations

Time (CST) Temp. Windchill Dew Point Humidity Pressure Visibility Wind Dir Wind Speed Gust Speed Precip Events Conditions
12:15 AM 28.4 °F 18.0 °F 21.2 °F 74% 29.33 in 7.0 mi SSE 12.7 mph 16.1 mph N/A   Overcast
12:35 AM 28.4 °F 18.5 °F 21.2 °F 74% 29.31 in 7.0 mi SSE 11.5 mph - N/A   Overcast
12:55 AM 28.4 °F 22.2 °F 21.2 °F 74% 29.38 in 7.0 mi SSW 5.8 mph - N/A   Overcast
1:15 AM 28.4 °F 20.4 °F 21.2 °F 74% 29.37 in 7.0 mi South 8.1 mph - N/A   Overcast
1:35 AM 30.2 °F 25.4 °F 23.0 °F 75% 29.36 in 7.0 mi South 4.6 mph - N/A   Overcast
1:56 AM 30.2 °F 24.3 °F 23.0 °F 75% 29.37 in 7.0 mi South 5.8 mph - N/A   Mostly Cloudy
2:15 AM 30.2 °F 23.4 °F 23.0 °F 75% 29.39 in 7.0 mi South 6.9 mph - N/A   Overcast
2:35 AM 30.2 °F 25.4 °F 24.8 °F 80% 29.40 in 7.0 mi SSW 4.6 mph - N/A   Overcast
2:56 AM 30.2 °F - 24.8 °F 80% 29.40 in 7.0 mi Calm Calm - N/A   Overcast
3:15 AM 33.8 °F 30.8 °F 26.6 °F 75% 29.41 in 10.0 mi West 3.5 mph - N/A   Overcast
3:36 AM 33.8 °F 24.3 °F 26.6 °F 75% 29.43 in 10.0 mi WNW 13.8 mph 19.6 mph N/A   Overcast
3:55 AM 33.8 °F 22.8 °F 24.8 °F 70% 29.45 in 3.0 mi WNW 18.4 mph 23.0 mph N/A Snow Light Snow
4:15 AM 30.2 °F 18.9 °F 24.8 °F 80% 29.48 in 3.0 mi WNW 16.1 mph 23.0 mph N/A Snow Light Snow
4:35 AM 30.2 °F 19.3 °F 21.2 °F 69% 29.50 in 7.0 mi NW 15.0 mph 19.6 mph N/A Snow Light Snow
4:56 AM 28.4 °F 15.8 °F 17.6 °F 64% 29.53 in 10.0 mi NNW 18.4 mph 27.6 mph N/A   Overcast
5:15 AM 26.6 °F 14.7 °F 17.6 °F 69% 29.56 in 10.0 mi NNW 15.0 mph 26.5 mph N/A   Overcast
5:36 AM 24.8 °F 10.7 °F 15.8 °F 69% 29.58 in 7.0 mi NW 19.6 mph 28.8 mph N/A   Overcast
5:55 AM 23.0 °F 9.2 °F 12.2 °F 63% 29.61 in 10.0 mi NW 17.3 mph 24.2 mph N/A Snow Light Snow
6:14 AM 21.2 °F 10.1 °F 10.4 °F 63% 29.64 in 10.0 mi NW 10.4 mph 23.0 mph N/A   Clear
6:35 AM 19.4 °F 5.5 °F 8.6 °F 63% 29.67 in 10.0 mi NW 15.0 mph 26.5 mph N/A   Clear
6:55 AM 17.6 °F 1.7 °F 6.8 °F 63% 29.70 in 10.0 mi NW 18.4 mph 24.2 mph N/A   Clear
7:15 AM 15.8 °F 2.1 °F 6.8 °F 68% 29.74 in 10.0 mi NW 12.7 mph 21.9 mph N/A   Clear
7:35 AM 15.8 °F 0.3 °F 6.8 °F 68% 29.75 in 10.0 mi NW 16.1 mph 25.3 mph N/A   Scattered Clouds
7:56 AM 15.8 °F 2.7 °F 6.8 °F 68% 29.77 in 10.0 mi NNW 11.5 mph 20.7 mph N/A   Overcast
8:15 AM 15.8 °F 5.1 °F 6.8 °F 68% 29.79 in 10.0 mi NNW 8.1 mph - N/A Snow Light Snow
8:36 AM 15.8 °F 3.4 °F 6.8 °F 68% 29.81 in 10.0 mi NNW 10.4 mph 19.6 mph N/A Snow Light Snow
8:55 AM 15.8 °F 4.2 °F 6.8 °F 68% 29.83 in 7.0 mi NNW 9.2 mph - N/A Snow Light Snow
9:15 AM 15.8 °F 1.4 °F 5.0 °F 62% 29.85 in 5.0 mi WNW 13.8 mph - N/A Snow Light Snow
9:36 AM 14.0 °F 0.5 °F 5.0 °F 67% 29.86 in 5.0 mi WNW 11.5 mph 18.4 mph N/A Snow Light Snow
9:55 AM 12.2 °F -2.5 °F 3.2 °F 67% 29.88 in 10.0 mi NW 12.7 mph 20.7 mph N/A Snow Light Snow
10:15 AM 12.2 °F -1.0 °F 1.4 °F 62% 29.89 in 10.0 mi NNW 10.4 mph 18.4 mph N/A   Mostly Cloudy
10:35 AM 14.0 °F 0.5 °F 3.2 °F 62% 29.90 in 10.0 mi NNW 11.5 mph 18.4 mph N/A   Scattered Clouds
10:56 AM 14.0 °F -2.0 °F 3.2 °F 62% 29.90 in 10.0 mi NNW 16.1 mph 20.7 mph N/A   Scattered Clouds
11:15 AM 14.0 °F 1.2 °F 1.4 °F 57% 29.91 in 10.0 mi NW 10.4 mph 20.7 mph N/A   Scattered Clouds
11:35 AM 14.0 °F 0.5 °F 3.2 °F 62% 29.91 in 10.0 mi NNW 11.5 mph 17.3 mph N/A   Scattered Clouds
11:56 AM 14.0 °F 1.2 °F 1.4 °F 57% 29.91 in 10.0 mi NNW 10.4 mph - N/A   Clear
12:15 PM 14.0 °F 3.9 °F 1.4 °F 57% 29.91 in 10.0 mi NW 6.9 mph - N/A   Clear
12:36 PM 14.0 °F -0.8 °F 3.2 °F 62% 29.90 in 10.0 mi WNW 13.8 mph - N/A   Clear
12:55 PM 15.8 °F 5.1 °F 1.4 °F 53% 29.93 in 10.0 mi NW 8.1 mph - N/A   Clear
1:15 PM 14.0 °F 5.1 °F 3.2 °F 62% 29.94 in 10.0 mi West 5.8 mph - N/A   Clear
1:36 PM 15.8 °F 5.1 °F 3.2 °F 58% 29.94 in 10.0 mi West 8.1 mph - N/A   Clear
1:55 PM 14.0 °F 2.9 °F 1.4 °F 57% 29.95 in 10.0 mi West 8.1 mph - N/A   Clear
2:16 PM 14.0 °F 2.0 °F 1.4 °F 57% 29.97 in 10.0 mi WNW 9.2 mph - N/A   Clear
2:35 PM 14.0 °F 1.2 °F 1.4 °F 57% 29.98 in 10.0 mi West 10.4 mph 19.6 mph N/A   Clear
2:56 PM 14.0 °F 2.9 °F 1.4 °F 57% 29.99 in 10.0 mi West 8.1 mph - N/A   Clear
3:14 PM 14.0 °F 0.5 °F 1.4 °F 57% 30.00 in 10.0 mi West 11.5 mph 18.4 mph N/A   Clear
3:35 PM 14.0 °F 1.2 °F 1.4 °F 57% 30.03 in 10.0 mi West 10.4 mph 19.6 mph N/A   Clear
3:56 PM 12.2 °F -1.0 °F 1.4 °F 62% 30.04 in 10.0 mi WNW 10.4 mph - N/A   Clear
4:15 PM 12.2 °F -2.5 °F -0.4 °F 57% 30.03 in 10.0 mi WNW 12.7 mph 18.4 mph N/A   Clear
4:36 PM 10.4 °F -3.3 °F -0.4 °F 62% 30.04 in 10.0 mi West 10.4 mph 16.1 mph N/A   Clear
4:55 PM 10.4 °F -0.4 °F -2.2 °F 57% 30.05 in 10.0 mi West 6.9 mph - N/A   Clear
5:16 PM 8.6 °F -2.6 °F -2.2 °F 62% 30.07 in 10.0 mi West 6.9 mph - N/A   Clear
5:35 PM 8.6 °F -2.6 °F -2.2 °F 62% 30.08 in 10.0 mi West 6.9 mph - N/A   Clear
5:56 PM 8.6 °F -1.3 °F -4.0 °F 57% 30.09 in 10.0 mi West 5.8 mph - N/A   Clear
6:15 PM 6.8 °F -4.8 °F -5.8 °F 56% 30.09 in 10.0 mi West 6.9 mph - N/A   Clear
6:35 PM 6.8 °F -4.8 °F -5.8 °F 56% 30.11 in 10.0 mi West 6.9 mph - N/A   Clear
6:56 PM 6.8 °F -4.8 °F -5.8 °F 56% 30.12 in 10.0 mi West 6.9 mph - N/A   Clear
7:15 PM 5.0 °F -8.1 °F -5.8 °F 61% 30.13 in 10.0 mi West 8.1 mph - N/A   Clear
7:36 PM 3.2 °F -7.8 °F -7.6 °F 61% 30.13 in 10.0 mi West 5.8 mph - N/A   Clear
7:55 PM 3.2 °F -12.2 °F -7.6 °F 61% 30.14 in 10.0 mi WNW 10.4 mph - N/A   Clear
8:15 PM 3.2 °F -10.3 °F -7.6 °F 61% 30.15 in 10.0 mi WNW 8.1 mph - N/A   Clear
8:35 PM 1.4 °F -13.5 °F -7.6 °F 66% 30.16 in 10.0 mi WNW 9.2 mph - N/A   Clear
8:55 PM 1.4 °F -15.3 °F -9.4 °F 61% 30.16 in 10.0 mi WNW 11.5 mph - N/A   Clear
9:16 PM -0.4 °F -16.7 °F -9.4 °F 66% 30.17 in 10.0 mi WNW 10.4 mph 17.3 mph N/A   Clear
9:35 PM -0.4 °F -14.7 °F -9.4 °F 66% 30.18 in 10.0 mi WNW 8.1 mph - N/A   Clear
9:56 PM -0.4 °F -13.4 °F -9.4 °F 66% 30.19 in 10.0 mi WNW 6.9 mph - N/A   Clear
10:15 PM -2.2 °F -15.6 °F -11.2 °F 66% 30.19 in 10.0 mi WNW 6.9 mph - N/A   Clear
10:35 PM -2.2 °F -12.5 °F -11.2 °F 66% 30.19 in 10.0 mi West 4.6 mph - N/A   Clear
10:55 PM -2.2 °F -14.2 °F -11.2 °F 66% 30.20 in 10.0 mi WNW 5.8 mph - N/A   Clear
11:15 PM -2.2 °F -10.4 °F -11.2 °F 66% 30.21 in 10.0 mi West 3.5 mph - N/A   Clear
11:35 PM -2.2 °F -12.5 °F -13.0 °F 60% 30.22 in 10.0 mi West 4.6 mph - N/A   Clear
11:55 PM -4.0 °F -19.0 °F -14.8 °F 60% 30.23 in 10.0 mi WNW 8.1 mph - N/A   Clear